Location: Caltech
(34.1382°N, 118.1253°W)
Time: 14:56:47
(UTC-08:00)

ERBS - Visible Passes

Search period start: 06 February 2016 00:00
Search period end: 16 February 2016 00:00
Orbit: 443 x 453 km, 57.0° (Epoch: 06 February)

Date Brightness Start Highest point End Pass type
(mag) Time Alt. Az. Time Alt. Az. Time Alt. Az.
10 Feb 4.8 05:57:47 10° N 06:00:27 20° NE 06:03:06 10° E visible
11 Feb 5.2 05:20:27 10° N 05:22:24 14° NE 05:24:21 10° ENE visible
12 Feb 5.4 04:44:05 10° NNE 04:44:18 10° NE 04:44:30 10° NE visible
13 Feb 2.9 05:40:18 10° NNW 05:43:44 59° NE 05:47:13 10° SE visible
14 Feb 3.7 05:04:12 24° N 05:05:45 37° NE 05:09:03 10° ESE visible
15 Feb 4.6 04:28:12 24° ENE 04:28:12 24° ENE 04:30:40 10° E visible
15 Feb 3.8 06:01:48 10° WNW 06:04:32 22° WSW 06:07:19 10° S visible
